[[{"header":{"parameterUnit":"m.s-1","parameterCategory":1,"la1":30.2992,"la2":30.254,"lo1":-89.0895,"lo2":-89.0443,"dy":0.0025,"dx":0.0025,"nx":19,"ny":19,"refTime":"2026-04-02T21:00:00:Z","depth":0,"parameterNumber":2,"parameterNumberName":"U-component_of_WINDS"},"data":[0,0,0,-3.188,-3.1881,-3.1952,-3.1953,-3.205,-3.2051,0,0,0,0,0,0,0,0,0,0,0,-3.1861,-3.1862,-3.188,-3.1882,-3.1952,-3.1953,-3.205,-3.2051,0,0,0,0,0,0,0,0,0,0,0,-3.1861,-3.1862,-3.1863,-3.1882,-3.1952,-3.1953,-3.205,-3.1994,0,0,0,0,0,0,0,0,0,0,-3.1924,-3.1909,-3.1862,-3.1863,-3.1882,-3.1952,-3.1953,-3.1991,-3.1998,-3.202,0,-3.204,0,-3.2047,-3.2058,-3.2058,0,0,0,-3.188,-3.1904,-3.1921,-3.1863,-3.1883,-3.1952,-3.192,-3.1995,-3.2002,-3.2029,-3.2042,-3.2045,-3.2049,-3.2059,-3.2059,-3.2194,-3.2195,0,0,-3.1876,-3.1876,-3.1916,-3.1926,-3.1914,-3.1918,-3.1922,-3.1999,-3.2013,-3.2042,-3.2047,-3.205,-3.2059,-3.206,-3.2193,-3.2194,0,0,0,-3.1866,-3.1873,-3.1888,-3.1922,-3.1934,-3.192,-3.1925,-3.201,-3.2015,-3.2048,-3.2052,-3.206,-3.2061,-3.2193,-3.2194,-3.2227,0,0,0,-3.1863,-3.1867,-3.1886,-3.1887,-3.1933,-3.1972,-3.1934,-3.2009,-3.2018,-3.2051,-3.206,-3.2062,-3.2192,-3.2193,-3.2224,-3.2242,0,0,0,-3.1856,-3.1866,-3.1877,-3.1886,-3.1917,-3.1971,-3.198,-3.2011,-3.202,-3.2058,-3.2062,-3.2191,-3.2193,-3.2222,-3.2238,-3.2277,0,0,0,-3.1848,-3.1906,-3.1878,-3.1945,-3.1916,-3.1992,-3.198,-3.2036,-3.2073,-3.206,-3.2192,-3.2194,-3.2221,-3.2236,-3.2275,-3.2308,-3.2322,0,0,-3.1921,-3.1915,-3.1954,-3.1931,-3.2011,-3.1981,-3.2067,-3.2101,-3.2106,-3.2165,-3.2168,-3.2225,-3.2238,-3.2277,-3.2406,-3.2417,0,0,0,-3.1977,-3.2005,-3.2027,-3.2062,-3.209,-3.2115,-3.2137,-3.215,-3.22,-3.2136,-3.2251,-3.2258,-3.2281,-3.2297,-3.2306,-3.2326,-3.2202,-3.2201,-3.2201,-3.2078,-3.2082,-3.2147,-3.2159,-3.2194,-3.2217,-3.2245,-3.2267,-3.226,-3.2288,-3.2304,-3.2382,-3.2401,-3.2408,-3.2428,-3.2324,-3.2324,-3.2324,-3.2324,-3.2184,-3.2224,-3.2216,-3.2275,-3.228,-3.2331,-3.2357,-3.2351,-3.2399,-3.237,-3.239,-3.2355,-3.242,-3.2438,-3.2327,-3.2327,-3.2326,-3.2326,-3.2326,-3.2249,-3.2269,-3.2284,-3.2336,-3.2377,-3.2389,-3.2436,-3.2439,-3.2442,-3.2462,-3.2479,-3.2479,-3.2477,-3.247,-3.2471,-3.2471,-3.2471,-3.2471,-3.2472,-3.2309,-3.2326,-3.2365,-3.2401,-3.2425,-3.2456,-3.2482,-3.2506,-3.2533,-3.2532,-3.2532,-3.2522,-3.2427,-3.2402,-3.2476,-3.2475,-3.2474,-3.2474,-3.2474,-3.2412,-3.2389,-3.2449,-3.2473,-3.2517,-3.2557,-3.2561,-3.261,-3.2631,-3.2654,-3.2642,-3.2572,-3.2566,-3.2558,-3.2537,-3.2642,-3.2642,-3.2642,-3.2642,-3.2465,-3.2463,-3.2525,-3.2563,-3.2601,-3.2611,-3.2681,-3.2703,-3.2723,-3.2736,-3.2723,-3.2696,-3.2688,-3.2687,-3.2676,-3.2656,-3.2789,-3.2789,-3.2789,-3.2528,-3.253,-3.2587,-3.2605,-3.2641,-3.2671,-3.2737,-3.2783,-3.2801,-3.2795,-3.2747,-3.2741,-3.2698,-3.2684,-3.2674,-3.2658,-3.2622,0,0]},{"header":{"parameterUnit":"m.s-1","parameterCategory":1,"la1":30.2992,"la2":30.254,"lo1":-89.0895,"lo2":-89.0443,"dy":0.0025,"dx":0.0025,"nx":19,"ny":19,"refTime":"2026-04-02T21:00:00:Z","depth":0,"parameterNumber":3,"parameterNumberName":"V-component_of_WINDS"},"data":[0,0,0,2.6802,2.6801,2.6756,2.6756,2.6689,2.6689,0,0,0,0,0,0,0,0,0,0,0,2.681,2.681,2.6802,2.6801,2.6756,2.6756,2.6689,2.6689,0,0,0,0,0,0,0,0,0,0,0,2.6811,2.681,2.6809,2.68,2.6756,2.6756,2.6689,2.6726,0,0,0,0,0,0,0,0,0,0,2.6771,2.6775,2.681,2.6809,2.68,2.6756,2.6756,2.6728,2.6724,2.6706,0,2.669,0,2.6689,2.6684,2.6683,0,0,0,2.6803,2.6778,2.6771,2.6809,2.68,2.6756,2.6777,2.6726,2.6721,2.67,2.6689,2.6687,2.6687,2.6683,2.6683,2.6578,2.6578,0,0,2.6805,2.6799,2.6774,2.6768,2.6776,2.6778,2.6776,2.6723,2.671,2.6689,2.6686,2.6686,2.6683,2.6682,2.6579,2.6578,0,0,0,2.6811,2.6801,2.6795,2.677,2.6763,2.6777,2.6774,2.6712,2.6711,2.6685,2.6686,2.6682,2.6681,2.6579,2.6579,2.6545,0,0,0,2.6812,2.6804,2.6796,2.6791,2.6764,2.6737,2.6764,2.6715,2.6709,2.6686,2.6682,2.6681,2.658,2.6579,2.6548,2.653,0,0,0,2.6815,2.6804,2.6797,2.6791,2.6773,2.6738,2.6734,2.6713,2.6709,2.6683,2.668,2.6581,2.6579,2.655,2.6533,2.6503,0,0,0,2.6814,2.6765,2.6796,2.6741,2.6773,2.6719,2.6735,2.6694,2.6668,2.6682,2.658,2.6579,2.6551,2.6536,2.6505,2.6476,2.6464,0,0,2.6748,2.6756,2.6725,2.6752,2.6692,2.6726,2.666,2.664,2.6641,2.6599,2.6596,2.6547,2.6534,2.6503,2.6395,2.6385,0,0,0,2.6701,2.6679,2.6664,2.6641,2.6627,2.6614,2.6606,2.6599,2.6564,2.6619,2.6527,2.6519,2.6502,2.6488,2.648,2.6466,2.6572,2.6572,2.6572,2.6597,2.6606,2.6554,2.6558,2.6535,2.653,2.6512,2.6502,2.6512,2.6491,2.6478,2.6412,2.6396,2.639,2.6375,2.6463,2.6463,2.6463,2.6463,2.6501,2.6471,2.6493,2.6451,2.6459,2.6423,2.6416,2.6426,2.6393,2.6421,2.6406,2.6436,2.6379,2.6366,2.6461,2.6461,2.6461,2.6462,2.6462,2.6435,2.6422,2.6417,2.6388,2.6364,2.6369,2.6338,2.6346,2.6352,2.6338,2.6327,2.6327,2.633,2.6332,2.6332,2.6332,2.6331,2.6331,2.6331,2.6367,2.6363,2.6338,2.6323,2.6311,2.6296,2.6293,2.6281,2.6269,2.6277,2.6277,2.6292,2.6372,2.6393,2.6327,2.6328,2.6329,2.6329,2.6329,2.6268,2.6293,2.6253,2.6242,2.6227,2.6204,2.6216,2.6192,2.6183,2.6168,2.6187,2.6245,2.6252,2.6259,2.6276,2.6185,2.6185,2.6185,2.6185,2.6212,2.6218,2.6182,2.6164,2.6147,2.6156,2.6111,2.6109,2.6109,2.6105,2.6119,2.6142,2.6149,2.6153,2.6162,2.6178,2.6064,2.6064,2.6063,2.6152,2.6158,2.6119,2.6124,2.6113,2.6103,2.6062,2.604,2.6046,2.6059,2.6102,2.6107,2.6144,2.6156,2.6169,2.6183,2.6212,0,0]}]]